Knox, IN

8:00 AM CDT on May 24, 2017 (GMT -0500)
Starke County

Weather History for KOXI - January, 2012

Change the Weather History Date:

Friday, January 13, 2012

  Actual Average (KRCR) Record (KRCR)
Temperature  
Mean Temperature 18 °F -  
Max Temperature 21 °F 28 °F 50 °F (2014)
Min Temperature 14 °F 12 °F 0 °F (2015)
Degree Days  
Heating Degree Days 48    
Moisture  
Dew Point 14 °F    
Average Humidity 84    
Maximum Humidity 91    
Minimum Humidity 79    
Precipitation  
Precipitation 0.00 in - - ()
Sea Level Pressure  
Sea Level Pressure 29.75 in    
Wind  
Wind Speed 20 mph (West)    
Max Wind Speed 26 mph    
Max Gust Speed 33 mph    
Visibility 7 miles    
Events      
Averages and records for this station are not official NWS values.
T = Trace of Precipitation, MM = Missing Value Source: NWS Daily Summary

Daily Weather History Graph

Daily Weather History Graph

Search for Another Location

Airport or City:

Trip Planner

Search our weather history database for the weather conditions in past years. The results will help you decide how hot, cold, wet, or windy it might be!

Date:

Astronomy

Jan. 13, 2012 Rise Set
Actual Time 7:11 AM CST 4:39 PM CST
Civil Twilight 6:40 AM CST 5:10 PM CST
Nautical Twilight 6:06 AM CST 5:44 PM CST
Astronomical Twilight 5:33 AM CST 6:17 PM CST
Moon 9:55 PM CST (1/13) 9:21 AM CST (1/13)
Length of Visible Light 10h 29m
Length of Day
9h 28m
Waning Gibbous, 78% of the Moon is Illuminated
Jan 13
Waning Gibbous
Jan 16
Last Quarter
Jan 23
New
Jan 30
First Quarter
Feb 7
Full

Hourly Weather History & Observations

Time (CST) Temp. Windchill Dew Point Humidity Pressure Visibility Wind Dir Wind Speed Gust Speed Precip Events Conditions
12:15 AM 18.9 °F 1.4 °F 16.7 °F 91% 29.48 in 1.0 mi West 24.2 mph 33.4 mph N/A   Overcast
12:35 AM 18.5 °F 1.6 °F 16.3 °F 91% 29.50 in 1.0 mi West 21.9 mph 31.1 mph N/A   Overcast
12:55 AM 18.3 °F -0.0 °F 16.0 °F 91% 29.50 in 1.0 mi West 26.5 mph 29.9 mph N/A   Overcast
1:15 AM 18.1 °F 1.2 °F 15.6 °F 90% 29.52 in 1.5 mi West 21.9 mph 29.9 mph N/A   Overcast
1:35 AM 17.6 °F 0.1 °F 15.1 °F 90% 29.53 in 2.0 mi West 23.0 mph 31.1 mph N/A   Overcast
1:55 AM 17.6 °F 0.5 °F 14.7 °F 88% 29.54 in 4.0 mi West 21.9 mph 28.8 mph N/A   Overcast
2:15 AM 17.4 °F 0.6 °F 14.4 °F 88% 29.55 in 4.0 mi West 20.7 mph 27.6 mph N/A   Overcast
2:35 AM 17.2 °F 1.2 °F 14.0 °F 87% 29.57 in 4.0 mi West 18.4 mph 24.2 mph N/A   Overcast
2:55 AM 16.7 °F 0.5 °F 13.6 °F 88% 29.58 in 5.0 mi West 18.4 mph 26.5 mph N/A   Overcast
3:15 AM 16.7 °F -0.3 °F 13.1 °F 86% 29.59 in 5.0 mi West 20.7 mph 26.5 mph N/A   Overcast
3:35 AM 16.3 °F -0.4 °F 12.7 °F 86% 29.60 in 5.0 mi West 19.6 mph 25.3 mph N/A   Overcast
3:55 AM 15.8 °F -0.2 °F 12.2 °F 86% 29.61 in 7.0 mi West 17.3 mph - N/A   Overcast
4:15 AM 15.6 °F -0.9 °F 12.2 °F 86% 29.62 in 3.0 mi West 18.4 mph - N/A   Overcast
4:35 AM 15.4 °F -1.6 °F 12.0 °F 86% 29.63 in 5.0 mi West 19.6 mph 26.5 mph N/A   Overcast
4:55 AM 15.4 °F -2.0 °F 11.8 °F 86% 29.64 in 10.0 mi West 20.7 mph - N/A   Overcast
5:15 AM 15.1 °F -2.0 °F 11.7 °F 86% 29.65 in 7.0 mi West 19.6 mph 24.2 mph N/A   Overcast
5:35 AM 15.3 °F -1.3 °F 11.8 °F 86% 29.66 in 7.0 mi West 18.4 mph - N/A   Overcast
5:55 AM 15.3 °F -0.4 °F 12.0 °F 87% 29.68 in 7.0 mi West 16.1 mph 24.2 mph N/A   Overcast
6:15 AM 15.3 °F -0.9 °F 11.8 °F 86% 29.69 in 10.0 mi West 17.3 mph - N/A   Overcast
6:35 AM 15.3 °F -1.8 °F 11.8 °F 86% 29.70 in 10.0 mi West 19.6 mph 23.0 mph N/A   Overcast
6:55 AM 14.9 °F -0.8 °F 11.3 °F 86% 29.71 in 10.0 mi West 16.1 mph 20.7 mph N/A   Overcast
7:15 AM 14.9 °F -2.3 °F 11.1 °F 85% 29.72 in 10.0 mi West 19.6 mph 23.0 mph N/A   Overcast
7:35 AM 14.5 °F -1.3 °F 11.1 °F 86% 29.73 in 5.0 mi West 16.1 mph - N/A   Overcast
7:55 AM 14.5 °F -1.3 °F 10.9 °F 86% 29.73 in 7.0 mi West 16.1 mph 20.7 mph N/A   Overcast
8:15 AM 14.5 °F -2.3 °F 10.9 °F 86% 29.75 in 7.0 mi West 18.4 mph - N/A   Scattered Clouds
8:35 AM 14.5 °F -1.8 °F 10.9 °F 86% 29.75 in 10.0 mi West 17.3 mph 21.9 mph N/A   Scattered Clouds
8:55 AM 15.3 °F -1.3 °F 11.3 °F 84% 29.77 in 10.0 mi West 18.4 mph 25.3 mph N/A   Overcast
9:15 AM 15.6 °F 0.1 °F 11.7 °F 84% 29.78 in 10.0 mi West 16.1 mph 23.0 mph N/A   Overcast
9:35 AM 15.6 °F -0.4 °F 11.7 °F 84% 29.79 in 4.0 mi West 17.3 mph 23.0 mph N/A   Overcast
9:55 AM 16.2 °F -1.0 °F 12.0 °F 84% 29.80 in 10.0 mi West 20.7 mph 24.2 mph N/A   Overcast
10:35 AM 17.1 °F 0.6 °F 12.4 °F 82% 29.82 in 10.0 mi West 19.6 mph 23.0 mph N/A   Overcast
10:55 AM 17.4 °F 1.5 °F 12.6 °F 81% 29.83 in 10.0 mi West 18.4 mph 23.0 mph N/A   Overcast
11:15 AM 17.4 °F 2.9 °F 12.7 °F 82% 29.83 in 10.0 mi West 15.0 mph 23.0 mph N/A   Overcast
11:35 AM 18.0 °F 2.6 °F 12.9 °F 81% 29.83 in 7.0 mi West 17.3 mph - N/A   Overcast
11:55 AM 18.1 °F 3.9 °F 13.1 °F 81% 29.83 in 7.0 mi West 15.0 mph - N/A   Overcast
12:15 PM 18.5 °F 3.3 °F 13.5 °F 81% 29.84 in 10.0 mi West 17.3 mph 20.7 mph N/A   Overcast
12:35 PM 19.0 °F 5.6 °F 13.6 °F 79% 29.84 in 10.0 mi West 13.8 mph - N/A   Overcast
12:55 PM 19.4 °F 4.5 °F 14.0 °F 80% 29.85 in 10.0 mi West 17.3 mph - N/A   Overcast
1:15 PM 19.8 °F 5.0 °F 14.5 °F 80% 29.85 in 10.0 mi WSW 17.3 mph 20.7 mph N/A   Overcast
1:55 PM 20.3 °F 6.1 °F 15.1 °F 80% 29.87 in 10.0 mi West 16.1 mph - N/A   Overcast
2:15 PM 20.5 °F 5.9 °F 15.4 °F 81% 29.88 in 10.0 mi WSW 17.3 mph - N/A   Overcast
2:35 PM 20.7 °F 6.1 °F 15.6 °F 81% 29.89 in 10.0 mi West 17.3 mph 21.9 mph N/A   Overcast
2:55 PM 20.8 °F 6.4 °F 15.8 °F 81% 29.90 in 7.0 mi West 17.3 mph 23.0 mph N/A   Overcast
3:15 PM 21.0 °F 5.7 °F 15.8 °F 80% 29.91 in 7.0 mi West 19.6 mph - N/A   Overcast
3:35 PM 20.7 °F 6.1 °F 15.8 °F 81% 29.92 in 7.0 mi West 17.3 mph - N/A   Overcast
3:55 PM 20.5 °F 6.9 °F 15.8 °F 82% 29.93 in 5.0 mi West 15.0 mph - N/A   Overcast
4:15 PM 20.3 °F 5.7 °F 15.8 °F 83% 29.94 in 5.0 mi West 17.3 mph 21.9 mph N/A   Overcast
4:35 PM 20.3 °F 6.1 °F 15.6 °F 82% 29.95 in 7.0 mi West 16.1 mph - N/A   Overcast
4:55 PM 20.1 °F 5.9 °F 15.6 °F 83% 29.96 in 7.0 mi WSW 16.1 mph - N/A   Overcast
5:15 PM 20.1 °F 6.9 °F 15.4 °F 82% 29.97 in 10.0 mi WSW 13.8 mph - N/A   Overcast
5:35 PM 19.9 °F 7.3 °F 15.4 °F 83% 29.97 in 10.0 mi West 12.7 mph - N/A   Overcast
5:55 PM 19.9 °F 6.2 °F 15.4 °F 83% 29.98 in 7.0 mi West 15.0 mph - N/A   Overcast
6:15 PM 19.8 °F 6.5 °F 15.6 °F 84% 29.99 in 5.0 mi West 13.8 mph - N/A   Overcast
6:55 PM 19.4 °F 6.0 °F 15.4 °F 85% 30.00 in 10.0 mi WSW 13.8 mph - N/A   Overcast
7:15 PM 19.2 °F 7.0 °F 15.1 °F 84% 30.01 in 10.0 mi West 11.5 mph 17.3 mph N/A   Overcast
7:35 PM 19.2 °F 6.4 °F 14.9 °F 83% 30.01 in 10.0 mi West 12.7 mph 17.3 mph N/A   Overcast
7:55 PM 19.4 °F 6.6 °F 14.7 °F 82% 30.01 in 10.0 mi West 12.7 mph 18.4 mph N/A   Overcast
8:15 PM 19.2 °F 6.4 °F 14.9 °F 83% 30.02 in 5.0 mi West 12.7 mph - N/A   Overcast
8:35 PM 19.2 °F 5.8 °F 15.1 °F 84% 30.02 in 7.0 mi West 13.8 mph 20.7 mph N/A   Overcast
9:15 PM 19.0 °F 7.5 °F 14.9 °F 84% 30.02 in 10.0 mi West 10.4 mph - N/A   Overcast
9:35 PM 18.9 °F 5.9 °F 15.1 °F 85% 30.02 in 10.0 mi WSW 12.7 mph - N/A   Overcast
9:55 PM 18.5 °F 6.1 °F 14.4 °F 84% 30.03 in 7.0 mi WSW 11.5 mph - N/A   Overcast
10:15 PM 18.5 °F 4.9 °F 14.4 °F 84% 30.03 in 7.0 mi West 13.8 mph - N/A   Overcast
10:35 PM 18.3 °F 4.6 °F 13.8 °F 83% 30.03 in 10.0 mi West 13.8 mph - N/A   Overcast
10:55 PM 18.3 °F 4.1 °F 13.3 °F 81% 30.04 in 10.0 mi West 15.0 mph - N/A   Overcast
11:15 PM 18.1 °F 3.9 °F 13.3 °F 81% 30.04 in 10.0 mi West 15.0 mph - N/A   Overcast
11:35 PM 17.8 °F 4.6 °F 13.5 °F 83% 30.04 in 7.0 mi West 12.7 mph - N/A   Overcast
11:55 PM 17.6 °F 6.4 °F 13.6 °F 84% 30.04 in 7.0 mi WSW 9.2 mph - N/A   Overcast